Station Historical Data
Daily Summary for December 5, 2017 Units:  English    Metric   Both
« Previous Day
Next Day »
Daily Weekly Monthly Yearly Custom
  High: Low: Average:
Temperature: 53.1 °F 35.2 °F 47.2 °F
Dew Point: 46.7 °F 21.5 °F 37.9 °F
Humidity: 84% 48% 71%
Wind Speed: 26.0mph 2.0mph 10.2mph
Wind Gust: 40.0mph - -
Wind- - SSW
Pressure: 29.91 in 29.69 in -
Precipitation: 0.48 in    
Historical Graphs
 
 
Tabular Data for December 5, 2017
Time Temperature Dew Point Pressure Wind Wind Speed Wind Gust Humidity Rainfall Rate (Hourly)
00:04 52.4 °F 34.3 °F 29.90 in SSE 7.0 mph 13.0 mph 50% 0.00 in
00:09 52.3 °F 34.2 °F 29.91 in South 8.0 mph 13.0 mph 50% 0.00 in
00:14 52.3 °F 34.2 °F 29.91 in SW 6.0 mph 14.0 mph 50% 0.00 in
00:19 52.2 °F 34.1 °F 29.91 in South 7.0 mph 14.0 mph 50% 0.00 in
00:24 52.3 °F 34.2 °F 29.90 in South 8.0 mph 17.0 mph 50% 0.00 in
00:29 52.4 °F 34.3 °F 29.90 in South 9.0 mph 18.0 mph 50% 0.00 in
00:34 52.4 °F 33.8 °F 29.90 in South 9.0 mph 18.0 mph 49% 0.00 in
00:39 52.3 °F 34.2 °F 29.90 in South 8.0 mph 18.0 mph 50% 0.00 in
00:44 52.2 °F 34.1 °F 29.90 in South 6.0 mph 13.0 mph 50% 0.00 in
00:49 52.2 °F 34.1 °F 29.90 in South 8.0 mph 13.0 mph 50% 0.00 in
00:54 52.1 °F 35.0 °F 29.89 in South 8.0 mph 18.0 mph 52% 0.00 in
00:59 52.1 °F 34.5 °F 29.89 in SSE 2.0 mph 12.0 mph 51% 0.00 in
01:04 52.0 °F 34.4 °F 29.89 in South 6.0 mph 13.0 mph 51% 0.00 in
01:09 52.2 °F 34.1 °F 29.88 in SSE 14.0 mph 18.0 mph 50% 0.00 in
01:14 52.3 °F 34.2 °F 29.88 in SSW 10.0 mph 19.0 mph 50% 0.00 in
01:19 52.4 °F 33.8 °F 29.89 in South 7.0 mph 19.0 mph 49% 0.00 in
01:24 52.4 °F 33.8 °F 29.88 in South 7.0 mph 14.0 mph 49% 0.00 in
01:29 52.4 °F 33.8 °F 29.88 in South 7.0 mph 11.0 mph 49% 0.00 in
01:34 52.5 °F 33.9 °F 29.88 in South 7.0 mph 15.0 mph 49% 0.00 in
01:39 52.5 °F 33.9 °F 29.88 in South 5.0 mph 13.0 mph 49% 0.00 in
01:44 52.6 °F 33.5 °F 29.90 in SSW 6.0 mph 13.0 mph 48% 0.00 in
01:49 52.6 °F 33.5 °F 29.90 in SSW 5.0 mph 13.0 mph 48% 0.00 in
01:54 52.7 °F 33.5 °F 29.90 in West 5.0 mph 12.0 mph 48% 0.00 in
01:59 52.6 °F 33.5 °F 29.89 in SW 11.0 mph 16.0 mph 48% 0.00 in
02:04 52.7 °F 33.5 °F 29.89 in South 8.0 mph 16.0 mph 48% 0.00 in
02:09 52.8 °F 34.2 °F 29.88 in SSE 8.0 mph 16.0 mph 49% 0.00 in
02:14 52.7 °F 35.1 °F 29.88 in South 7.0 mph 16.0 mph 51% 0.00 in
02:19 52.3 °F 35.2 °F 29.88 in South 7.0 mph 16.0 mph 52% 0.00 in
02:24 52.1 °F 35.5 °F 29.88 in South 7.0 mph 16.0 mph 53% 0.00 in
02:29 51.8 °F 35.7 °F 29.87 in SSW 15.0 mph 16.0 mph 54% 0.00 in
02:34 51.5 °F 36.3 °F 29.87 in South 7.0 mph 16.0 mph 56% 0.00 in
02:39 51.2 °F 36.0 °F 29.87 in South 8.0 mph 16.0 mph 56% 0.00 in
02:44 51.0 °F 36.7 °F 29.87 in SSE 8.0 mph 15.0 mph 58% 0.00 in
02:49 50.6 °F 37.6 °F 29.87 in South 9.0 mph 16.0 mph 61% 0.01 in
02:54 50.2 °F 38.1 °F 29.87 in SSE 5.0 mph 18.0 mph 63% 0.02 in
02:59 49.8 °F 38.1 °F 29.88 in South 7.0 mph 18.0 mph 64% 0.02 in
03:04 49.5 °F 38.6 °F 29.87 in SSE 4.0 mph 13.0 mph 66% 0.03 in
03:09 49.3 °F 38.4 °F 29.86 in South 7.0 mph 16.0 mph 66% 0.03 in
03:14 49.1 °F 39.0 °F 29.86 in South 8.0 mph 17.0 mph 68% 0.03 in
03:24 48.6 °F 39.3 °F 29.85 in South 8.0 mph 18.0 mph 70% 0.04 in
03:29 48.5 °F 39.5 °F 29.85 in South 7.0 mph 13.0 mph 71% 0.05 in
03:34 48.4 °F 39.4 °F 29.85 in South 3.0 mph 12.0 mph 71% 0.05 in
03:39 48.4 °F 39.8 °F 29.85 in South 5.0 mph 16.0 mph 72% 0.06 in
03:49 48.1 °F 39.9 °F 29.84 in South 8.0 mph 16.0 mph 73% 0.07 in
03:54 47.9 °F 40.0 °F 29.84 in SSW 5.0 mph 9.0 mph 74% 0.07 in
03:59 47.6 °F 40.1 °F 29.84 in SSW 7.0 mph 8.0 mph 75% 0.08 in
04:09 47.3 °F 39.8 °F 29.84 in South 6.0 mph 12.0 mph 75% 0.08 in
04:14 47.5 °F 40.3 °F 29.84 in South 6.0 mph 13.0 mph 76% 0.08 in
04:19 47.5 °F 40.3 °F 29.84 in South 6.0 mph 13.0 mph 76% 0.08 in
04:24 47.4 °F 40.2 °F 29.84 in South 7.0 mph 15.0 mph 76% 0.08 in
04:29 47.4 °F 40.2 °F 29.84 in South 6.0 mph 15.0 mph 76% 0.09 in
04:34 47.4 °F 40.2 °F 29.84 in South 8.0 mph 12.0 mph 76% 0.10 in
04:39 47.5 °F 40.6 °F 29.84 in South 7.0 mph 14.0 mph 77% 0.10 in
04:44 47.5 °F 40.6 °F 29.84 in South 8.0 mph 17.0 mph 77% 0.09 in
04:49 47.5 °F 40.6 °F 29.84 in South 5.0 mph 9.0 mph 77% 0.09 in
04:54 47.4 °F 40.6 °F 29.84 in SSW 7.0 mph 8.0 mph 77% 0.08 in
04:59 47.3 °F 40.5 °F 29.83 in South 5.0 mph 9.0 mph 77% 0.08 in
05:04 47.3 °F 40.8 °F 29.83 in SSE 4.0 mph 12.0 mph 78% 0.09 in
05:09 47.0 °F 40.8 °F 29.82 in South 6.0 mph 12.0 mph 79% 0.09 in
05:14 46.8 °F 41.0 °F 29.82 in South 6.0 mph 14.0 mph 80% 0.10 in
05:19 46.8 °F 41.0 °F 29.83 in South 7.0 mph 15.0 mph 80% 0.11 in
05:24 46.8 °F 41.3 °F 29.83 in South 7.0 mph 17.0 mph 81% 0.11 in
05:29 46.8 °F 41.3 °F 29.83 in SSW 7.0 mph 14.0 mph 81% 0.11 in
05:34 46.8 °F 41.3 °F 29.82 in South 8.0 mph 14.0 mph 81% 0.11 in
05:39 46.7 °F 41.5 °F 29.82 in South 8.0 mph 17.0 mph 82% 0.12 in
05:44 46.6 °F 41.4 °F 29.82 in South 7.0 mph 17.0 mph 82% 0.13 in
05:49 46.6 °F 41.7 °F 29.82 in South 8.0 mph 12.0 mph 83% 0.12 in
05:59 46.6 °F 41.7 °F 29.82 in SSW 6.0 mph 15.0 mph 83% 0.12 in
06:04 46.6 °F 41.7 °F 29.83 in South 8.0 mph 18.0 mph 83% 0.13 in
06:09 46.6 °F 41.7 °F 29.82 in South 7.0 mph 18.0 mph 83% 0.13 in
06:14 46.5 °F 41.9 °F 29.82 in South 7.0 mph 16.0 mph 84% 0.12 in
06:19 46.6 °F 42.0 °F 29.82 in South 8.0 mph 19.0 mph 84% 0.11 in
06:24 46.8 °F 42.2 °F 29.81 in South 6.0 mph 15.0 mph 84% 0.11 in
06:29 46.9 °F 42.3 °F 29.81 in South 11.0 mph 15.0 mph 84% 0.10 in
06:34 47.0 °F 42.1 °F 29.81 in South 8.0 mph 15.0 mph 83% 0.09 in
06:39 47.1 °F 42.2 °F 29.82 in South 8.0 mph 16.0 mph 83% 0.10 in
06:44 47.0 °F 42.1 °F 29.81 in South 7.0 mph 16.0 mph 83% 0.09 in
06:49 47.1 °F 42.2 °F 29.81 in South 10.0 mph 11.0 mph 83% 0.09 in
06:54 47.2 °F 42.3 °F 29.81 in South 4.0 mph 13.0 mph 83% 0.09 in
06:59 47.4 °F 42.5 °F 29.81 in SSE 9.0 mph 12.0 mph 83% 0.08 in
07:04 47.6 °F 42.4 °F 29.81 in South 7.0 mph 17.0 mph 82% 0.06 in
07:09 47.9 °F 42.7 °F 29.81 in South 8.0 mph 17.0 mph 82% 0.04 in
07:14 48.2 °F 42.6 °F 29.82 in SSW 7.0 mph 15.0 mph 81% 0.03 in
07:19 48.4 °F 42.8 °F 29.82 in WSW 4.0 mph 14.0 mph 81% 0.03 in
07:24 48.5 °F 42.9 °F 29.82 in South 15.0 mph 22.0 mph 81% 0.04 in
07:29 48.6 °F 43.4 °F 29.82 in SW 8.0 mph 12.0 mph 82% 0.04 in
07:34 48.6 °F 43.4 °F 29.82 in SSW 7.0 mph 17.0 mph 82% 0.02 in
07:39 48.8 °F 43.5 °F 29.82 in SSW 8.0 mph 20.0 mph 82% 0.02 in
07:44 49.0 °F 44.1 °F 29.82 in SSW 8.0 mph 20.0 mph 83% 0.03 in
07:49 49.1 °F 44.2 °F 29.81 in WSW 3.0 mph 23.0 mph 83% 0.03 in
07:54 49.3 °F 44.4 °F 29.82 in South 12.0 mph 18.0 mph 83% 0.03 in
07:59 49.3 °F 44.4 °F 29.82 in South 8.0 mph 17.0 mph 83% 0.04 in
08:04 49.3 °F 44.4 °F 29.82 in South 8.0 mph 19.0 mph 83% 0.04 in
08:09 49.3 °F 44.4 °F 29.82 in SSW 9.0 mph 21.0 mph 83% 0.05 in
08:14 49.3 °F 44.4 °F 29.82 in SSW 9.0 mph 21.0 mph 83% 0.05 in
08:19 49.2 °F 44.3 °F 29.82 in SSW 9.0 mph 20.0 mph 83% 0.06 in
08:24 49.2 °F 44.3 °F 29.81 in South 11.0 mph 18.0 mph 83% 0.05 in
08:29 49.2 °F 44.3 °F 29.81 in South 4.0 mph 17.0 mph 83% 0.06 in
08:34 49.1 °F 44.5 °F 29.80 in SSW 10.0 mph 19.0 mph 84% 0.05 in
08:39 49.1 °F 44.5 °F 29.80 in South 10.0 mph 19.0 mph 84% 0.05 in
08:44 49.1 °F 44.5 °F 29.80 in South 9.0 mph 26.0 mph 84% 0.05 in
08:49 49.0 °F 44.4 °F 29.80 in South 9.0 mph 26.0 mph 84% 0.05 in
08:54 48.9 °F 44.3 °F 29.80 in SSW 5.0 mph 18.0 mph 84% 0.06 in
08:59 48.9 °F 44.3 °F 29.80 in SSW 9.0 mph 21.0 mph 84% 0.05 in
09:04 48.8 °F 44.2 °F 29.79 in South 9.0 mph 21.0 mph 84% 0.05 in
09:09 48.9 °F 44.3 °F 29.79 in SSW 10.0 mph 23.0 mph 84% 0.05 in
09:14 49.0 °F 44.4 °F 29.79 in South 7.0 mph 21.0 mph 84% 0.05 in
09:19 49.1 °F 44.5 °F 29.79 in South 9.0 mph 19.0 mph 84% 0.04 in
09:29 49.4 °F 44.5 °F 29.80 in SSW 17.0 mph 22.0 mph 83% 0.03 in
09:39 49.7 °F 44.7 °F 29.80 in South 11.0 mph 22.0 mph 83% 0.03 in
09:44 49.7 °F 44.4 °F 29.79 in South 9.0 mph 22.0 mph 82% 0.02 in
09:49 49.8 °F 44.5 °F 29.78 in South 9.0 mph 18.0 mph 82% 0.02 in
09:54 49.9 °F 44.6 °F 29.79 in South 9.0 mph 20.0 mph 82% 0.01 in
09:59 49.9 °F 44.6 °F 29.79 in SSW 7.0 mph 15.0 mph 82% 0.01 in
10:04 50.1 °F 44.8 °F 29.79 in SSW 9.0 mph 23.0 mph 82% 0.01 in
10:09 50.3 °F 45.0 °F 29.78 in South 10.0 mph 23.0 mph 82% 0.00 in
10:14 50.5 °F 45.2 °F 29.79 in SSW 5.0 mph 20.0 mph 82% 0.00 in
10:19 50.7 °F 45.1 °F 29.79 in South 14.0 mph 24.0 mph 81% 0.00 in
10:24 50.7 °F 45.1 °F 29.79 in WSW 10.0 mph 18.0 mph 81% 0.00 in
10:29 50.8 °F 45.2 °F 29.78 in SSW 12.0 mph 19.0 mph 81% 0.00 in
10:34 51.0 °F 45.0 °F 29.78 in SSW 9.0 mph 21.0 mph 80% 0.00 in
10:39 51.1 °F 45.1 °F 29.79 in SSW 11.0 mph 21.0 mph 80% 0.00 in
10:44 51.2 °F 45.2 °F 29.78 in SSW 10.0 mph 29.0 mph 80% 0.00 in
10:49 51.4 °F 45.4 °F 29.77 in South 11.0 mph 29.0 mph 80% 0.00 in
10:54 51.7 °F 45.7 °F 29.77 in South 11.0 mph 26.0 mph 80% 0.00 in
10:59 51.9 °F 45.6 °F 29.76 in SSW 10.0 mph 19.0 mph 79% 0.00 in
11:04 52.0 °F 45.7 °F 29.75 in South 10.0 mph 22.0 mph 79% 0.00 in
11:09 52.0 °F 45.7 °F 29.75 in South 10.0 mph 22.0 mph 79% 0.00 in
11:19 52.3 °F 46.0 °F 29.73 in South 8.0 mph 21.0 mph 79% 0.00 in
11:24 52.4 °F 45.7 °F 29.74 in SSE 10.0 mph 23.0 mph 78% 0.00 in
11:29 52.4 °F 45.7 °F 29.73 in SSW 7.0 mph 20.0 mph 78% 0.00 in
11:34 52.4 °F 45.7 °F 29.74 in SW 11.0 mph 24.0 mph 78% 0.00 in
11:39 52.4 °F 45.7 °F 29.72 in SSW 11.0 mph 24.0 mph 78% 0.00 in
11:44 52.6 °F 45.9 °F 29.72 in SSW 10.0 mph 25.0 mph 78% 0.00 in
11:49 52.6 °F 45.9 °F 29.72 in SSW 10.0 mph 25.0 mph 78% 0.00 in
11:54 52.7 °F 46.0 °F 29.73 in SSW 10.0 mph 23.0 mph 78% 0.00 in
11:59 52.7 °F 46.0 °F 29.72 in SSW 11.0 mph 25.0 mph 78% 0.00 in
12:04 52.7 °F 46.0 °F 29.73 in SSW 11.0 mph 25.0 mph 78% 0.00 in
12:09 52.8 °F 46.1 °F 29.73 in SSE 23.0 mph 25.0 mph 78% 0.00 in
12:14 52.8 °F 46.1 °F 29.73 in SSE 10.0 mph 24.0 mph 78% 0.00 in
12:19 52.8 °F 46.1 °F 29.73 in SSW 13.0 mph 32.0 mph 78% 0.00 in
12:24 52.8 °F 46.1 °F 29.73 in SSW 13.0 mph 22.0 mph 78% 0.00 in
12:29 52.8 °F 46.1 °F 29.73 in South 10.0 mph 20.0 mph 78% 0.00 in
12:34 52.7 °F 46.0 °F 29.73 in SSW 11.0 mph 23.0 mph 78% 0.00 in
12:39 52.6 °F 45.9 °F 29.72 in SSW 11.0 mph 23.0 mph 78% 0.00 in
12:44 52.6 °F 45.9 °F 29.72 in SSW 12.0 mph 23.0 mph 78% 0.00 in
12:49 52.8 °F 46.5 °F 29.72 in SSW 11.0 mph 23.0 mph 79% 0.00 in
12:54 52.9 °F 46.6 °F 29.72 in SSW 10.0 mph 22.0 mph 79% 0.00 in
12:59 53.0 °F 46.3 °F 29.72 in SSW 9.0 mph 25.0 mph 78% 0.00 in
13:04 52.8 °F 46.1 °F 29.71 in WSW 13.0 mph 24.0 mph 78% 0.00 in
13:09 52.7 °F 46.0 °F 29.71 in SSW 11.0 mph 25.0 mph 78% 0.00 in
13:14 52.6 °F 46.3 °F 29.71 in SSE 11.0 mph 23.0 mph 79% 0.00 in
13:19 52.8 °F 46.1 °F 29.72 in SSW 9.0 mph 21.0 mph 78% 0.00 in
13:24 52.9 °F 46.2 °F 29.72 in SW 7.0 mph 19.0 mph 78% 0.00 in
13:29 52.9 °F 46.6 °F 29.70 in SSW 8.0 mph 19.0 mph 79% 0.00 in
13:34 53.0 °F 46.7 °F 29.70 in SSW 9.0 mph 19.0 mph 79% 0.00 in
13:39 53.1 °F 46.4 °F 29.70 in SSW 9.0 mph 21.0 mph 78% 0.00 in
13:44 52.9 °F 46.2 °F 29.70 in SSW 9.0 mph 21.0 mph 78% 0.00 in
13:49 52.9 °F 46.2 °F 29.69 in SSW 9.0 mph 20.0 mph 78% 0.00 in
13:54 52.8 °F 46.1 °F 29.70 in SSW 9.0 mph 20.0 mph 78% 0.00 in
13:59 52.8 °F 46.1 °F 29.69 in SSW 7.0 mph 20.0 mph 78% 0.00 in
14:04 52.7 °F 46.0 °F 29.70 in WSW 5.0 mph 17.0 mph 78% 0.00 in
14:09 52.6 °F 45.9 °F 29.71 in WSW 14.0 mph 23.0 mph 78% 0.00 in
14:14 51.5 °F 44.9 °F 29.70 in SW 8.0 mph 20.0 mph 78% 0.00 in
14:19 50.5 °F 43.9 °F 29.71 in WSW 10.0 mph 19.0 mph 78% 0.00 in
14:24 49.8 °F 43.5 °F 29.71 in WSW 9.0 mph 18.0 mph 79% 0.00 in
14:29 49.5 °F 43.6 °F 29.71 in WSW 10.0 mph 18.0 mph 80% 0.00 in
14:34 49.2 °F 43.6 °F 29.72 in SW 10.0 mph 21.0 mph 81% 0.00 in
14:39 48.9 °F 43.3 °F 29.72 in WSW 9.0 mph 21.0 mph 81% 0.00 in
14:44 48.2 °F 42.3 °F 29.72 in WSW 10.0 mph 18.0 mph 80% 0.00 in
14:49 47.9 °F 42.0 °F 29.72 in WSW 10.0 mph 17.0 mph 80% 0.00 in
14:54 47.6 °F 41.7 °F 29.71 in SW 13.0 mph 18.0 mph 80% 0.00 in
14:59 47.4 °F 41.5 °F 29.72 in WSW 9.0 mph 22.0 mph 80% 0.00 in
15:04 47.3 °F 41.1 °F 29.71 in SSW 13.0 mph 20.0 mph 79% 0.00 in
15:09 47.0 °F 40.8 °F 29.72 in South 8.0 mph 23.0 mph 79% 0.00 in
15:19 46.6 °F 40.4 °F 29.71 in SSW 13.0 mph 19.0 mph 79% 0.00 in
15:24 46.4 °F 39.9 °F 29.71 in SW 10.0 mph 22.0 mph 78% 0.00 in
15:29 46.2 °F 39.7 °F 29.71 in SW 11.0 mph 22.0 mph 78% 0.00 in
15:34 46.1 °F 39.6 °F 29.70 in SW 11.0 mph 18.0 mph 78% 0.00 in
15:39 46.0 °F 39.5 °F 29.70 in SW 10.0 mph 21.0 mph 78% 0.00 in
15:44 45.9 °F 39.4 °F 29.70 in SW 9.0 mph 21.0 mph 78% 0.00 in
15:49 45.9 °F 39.4 °F 29.70 in SW 10.0 mph 22.0 mph 78% 0.00 in
15:54 45.9 °F 39.8 °F 29.70 in SSE 7.0 mph 18.0 mph 79% 0.00 in
15:59 45.9 °F 39.8 °F 29.70 in SW 9.0 mph 18.0 mph 79% 0.00 in
16:04 45.9 °F 39.4 °F 29.69 in SW 8.0 mph 19.0 mph 78% 0.00 in
16:09 45.9 °F 39.4 °F 29.69 in SW 15.0 mph 21.0 mph 78% 0.00 in
16:14 45.9 °F 39.1 °F 29.70 in SW 12.0 mph 18.0 mph 77% 0.00 in
16:19 45.9 °F 38.8 °F 29.70 in SW 4.0 mph 18.0 mph 76% 0.00 in
16:24 45.9 °F 38.4 °F 29.71 in SW 10.0 mph 18.0 mph 75% 0.00 in
16:29 46.0 °F 38.5 °F 29.71 in West 8.0 mph 17.0 mph 75% 0.00 in
16:34 46.1 °F 38.3 °F 29.72 in WSW 14.0 mph 21.0 mph 74% 0.00 in
16:39 46.2 °F 38.4 °F 29.71 in SW 7.0 mph 19.0 mph 74% 0.00 in
16:44 46.2 °F 38.7 °F 29.71 in SSW 4.0 mph 22.0 mph 75% 0.00 in
16:49 46.2 °F 38.7 °F 29.71 in WSW 14.0 mph 20.0 mph 75% 0.00 in
16:54 46.3 °F 38.8 °F 29.70 in WSW 9.0 mph 20.0 mph 75% 0.00 in
16:59 46.2 °F 38.7 °F 29.71 in WSW 9.0 mph 20.0 mph 75% 0.00 in
17:04 46.2 °F 37.7 °F 29.71 in SW 10.0 mph 22.0 mph 72% 0.00 in
17:09 46.2 °F 37.3 °F 29.71 in WSW 3.0 mph 14.0 mph 71% 0.00 in
17:14 46.2 °F 37.3 °F 29.71 in SSW 9.0 mph 13.0 mph 71% 0.00 in
17:24 46.0 °F 36.4 °F 29.70 in West 5.0 mph 19.0 mph 69% 0.00 in
17:29 45.8 °F 36.2 °F 29.71 in SW 7.0 mph 18.0 mph 69% 0.00 in
17:34 45.8 °F 36.2 °F 29.70 in WSW 8.0 mph 18.0 mph 69% 0.00 in
17:39 45.8 °F 36.2 °F 29.71 in WSW 6.0 mph 17.0 mph 69% 0.00 in
17:44 46.0 °F 36.0 °F 29.71 in WSW 15.0 mph 21.0 mph 68% 0.00 in
17:49 46.0 °F 35.7 °F 29.71 in WSW 11.0 mph 21.0 mph 67% 0.00 in
17:54 46.1 °F 35.7 °F 29.71 in WSW 13.0 mph 23.0 mph 67% 0.00 in
17:59 46.0 °F 34.9 °F 29.71 in WSW 12.0 mph 23.0 mph 65% 0.00 in
18:04 46.0 °F 34.5 °F 29.71 in WSW 12.0 mph 25.0 mph 64% 0.00 in
18:09 46.1 °F 34.6 °F 29.72 in SW 18.0 mph 29.0 mph 64% 0.00 in
18:14 45.9 °F 34.0 °F 29.71 in WSW 17.0 mph 29.0 mph 63% 0.00 in
18:19 45.7 °F 34.2 °F 29.71 in SW 6.0 mph 25.0 mph 64% 0.00 in
18:24 45.6 °F 34.5 °F 29.72 in WSW 14.0 mph 26.0 mph 65% 0.00 in
18:29 45.4 °F 35.1 °F 29.72 in West 19.0 mph 29.0 mph 67% 0.00 in
18:34 45.2 °F 34.9 °F 29.73 in WSW 21.0 mph 34.0 mph 67% 0.00 in
18:39 44.9 °F 35.0 °F 29.73 in WNW 19.0 mph 25.0 mph 68% 0.00 in
18:44 44.5 °F 35.3 °F 29.73 in WSW 14.0 mph 26.0 mph 70% 0.00 in
18:49 44.1 °F 34.6 °F 29.73 in WSW 14.0 mph 26.0 mph 69% 0.00 in
18:54 43.8 °F 33.6 °F 29.74 in WSW 15.0 mph 27.0 mph 67% 0.00 in
18:59 43.5 °F 32.9 °F 29.74 in West 15.0 mph 30.0 mph 66% 0.00 in
19:04 43.3 °F 32.7 °F 29.75 in WSW 19.0 mph 24.0 mph 66% 0.00 in
19:09 43.2 °F 32.6 °F 29.75 in WSW 13.0 mph 24.0 mph 66% 0.00 in
19:14 43.2 °F 33.0 °F 29.75 in WSW 12.0 mph 23.0 mph 67% 0.00 in
19:19 43.2 °F 33.0 °F 29.76 in WSW 15.0 mph 26.0 mph 67% 0.00 in
19:24 43.1 °F 32.1 °F 29.76 in SW 15.0 mph 28.0 mph 65% 0.00 in
19:29 43.1 °F 32.1 °F 29.76 in WNW 14.0 mph 27.0 mph 65% 0.00 in
19:34 42.9 °F 32.3 °F 29.76 in WSW 26.0 mph 31.0 mph 66% 0.00 in
19:39 42.6 °F 32.0 °F 29.75 in WSW 15.0 mph 31.0 mph 66% 0.00 in
19:44 42.5 °F 31.9 °F 29.77 in WSW 17.0 mph 36.0 mph 66% 0.00 in
19:49 42.3 °F 31.4 °F 29.77 in WSW 15.0 mph 36.0 mph 65% 0.00 in
19:54 42.1 °F 30.0 °F 29.77 in WSW 15.0 mph 31.0 mph 62% 0.00 in
19:59 42.0 °F 30.7 °F 29.77 in WNW 13.0 mph 34.0 mph 64% 0.00 in
20:04 41.9 °F 30.2 °F 29.77 in WSW 15.0 mph 34.0 mph 63% 0.00 in
20:09 41.7 °F 28.8 °F 29.78 in WSW 14.0 mph 34.0 mph 60% 0.00 in
20:14 41.5 °F 27.8 °F 29.77 in WSW 16.0 mph 34.0 mph 58% 0.00 in
20:19 41.3 °F 26.8 °F 29.78 in WSW 17.0 mph 35.0 mph 56% 0.00 in
20:24 41.3 °F 28.0 °F 29.78 in SW 23.0 mph 36.0 mph 59% 0.00 in
20:29 41.2 °F 28.4 °F 29.78 in WSW 12.0 mph 31.0 mph 60% 0.00 in
20:34 41.1 °F 29.1 °F 29.78 in West 15.0 mph 28.0 mph 62% 0.00 in
20:39 41.1 °F 29.5 °F 29.79 in WSW 18.0 mph 26.0 mph 63% 0.00 in
20:44 40.9 °F 28.9 °F 29.78 in WSW 15.0 mph 30.0 mph 62% 0.00 in
20:49 40.7 °F 29.5 °F 29.80 in WSW 7.0 mph 31.0 mph 64% 0.00 in
20:54 40.3 °F 28.3 °F 29.80 in WNW 22.0 mph 25.0 mph 62% 0.00 in
20:59 40.0 °F 27.2 °F 29.80 in WSW 15.0 mph 31.0 mph 60% 0.00 in
21:04 39.8 °F 27.8 °F 29.79 in WSW 17.0 mph 40.0 mph 62% 0.00 in
21:14 39.7 °F 27.7 °F 29.79 in WSW 16.0 mph 38.0 mph 62% 0.00 in
21:19 39.6 °F 28.0 °F 29.80 in WSW 15.0 mph 38.0 mph 63% 0.00 in
21:24 39.5 °F 27.9 °F 29.80 in WSW 14.0 mph 31.0 mph 63% 0.00 in
21:29 39.4 °F 27.5 °F 29.80 in WNW 21.0 mph 28.0 mph 62% 0.00 in
21:34 39.3 °F 27.0 °F 29.81 in West 18.0 mph 29.0 mph 61% 0.00 in
21:39 39.1 °F 27.6 °F 29.82 in WSW 20.0 mph 28.0 mph 63% 0.00 in
21:44 38.7 °F 26.8 °F 29.82 in SW 20.0 mph 31.0 mph 62% 0.00 in
21:49 38.3 °F 26.8 °F 29.83 in West 9.0 mph 24.0 mph 63% 0.00 in
21:54 37.8 °F 25.1 °F 29.83 in WSW 13.0 mph 24.0 mph 60% 0.00 in
21:59 37.3 °F 23.9 °F 29.83 in WSW 15.0 mph 38.0 mph 58% 0.00 in
22:04 37.1 °F 23.7 °F 29.83 in WSW 16.0 mph 38.0 mph 58% 0.00 in
22:09 36.9 °F 23.5 °F 29.83 in WSW 14.0 mph 28.0 mph 58% 0.00 in
22:15 36.7 °F 22.5 °F 29.84 in WSW 18.0 mph 32.0 mph 56% 0.00 in
22:20 36.6 °F 23.6 °F 29.84 in WSW 17.0 mph 32.0 mph 59% 0.00 in
22:25 36.5 °F 23.5 °F 29.84 in WSW 12.0 mph 32.0 mph 59% 0.00 in
22:39 36.4 °F 23.0 °F 29.84 in WSW 17.0 mph 32.0 mph 58% 0.00 in
22:45 36.1 °F 21.9 °F 29.86 in West 23.0 mph 30.0 mph 56% 0.00 in
22:50 36.0 °F 21.8 °F 29.85 in WNW 17.0 mph 29.0 mph 56% 0.00 in
22:55 35.9 °F 22.1 °F 29.86 in West 19.0 mph 27.0 mph 57% 0.00 in
23:00 35.7 °F 21.5 °F 29.85 in West 8.0 mph 25.0 mph 56% 0.00 in
23:05 35.7 °F 21.9 °F 29.85 in SSW 8.0 mph 25.0 mph 57% 0.00 in
23:10 35.6 °F 21.9 °F 29.85 in West 11.0 mph 25.0 mph 57% 0.00 in
23:15 35.5 °F 21.8 °F 29.85 in West 12.0 mph 21.0 mph 57% 0.00 in
23:20 35.4 °F 22.1 °F 29.85 in WSW 6.0 mph 21.0 mph 58% 0.00 in
23:25 35.3 °F 22.0 °F 29.86 in WSW 7.0 mph 14.0 mph 58% 0.00 in
23:30 35.2 °F 22.3 °F 29.86 in West 6.0 mph 14.0 mph 59% 0.00 in
23:35 35.3 °F 22.4 °F 29.86 in West 9.0 mph 17.0 mph 59% 0.00 in
23:40 35.5 °F 22.2 °F 29.86 in WNW 19.0 mph 21.0 mph 58% 0.00 in
23:45 35.6 °F 22.3 °F 29.86 in WSW 14.0 mph 23.0 mph 58% 0.00 in
23:50 35.6 °F 22.3 °F 29.85 in SW 12.0 mph 21.0 mph 58% 0.00 in
23:55 35.6 °F 22.3 °F 29.85 in WSW 4.0 mph 17.0 mph 58% 0.00 in
Buffalo, New York, USA
Compliments of Weather Underground - 2.5 mb